Location: Unspecified
(0.0000°N, 0.0000°E)
Time: 18:09:19
(UTC+00:00)

Vanguard 1 Rocket - Pass Details

Date: 25 April 2026
Orbit: 655 x 4212 km, 34.3° (Epoch: 17 May)

Event Time Altitude Azimuth Distance (km) Brightness Sun altitude
Rises 04:51:14 0° 300° (WNW) 6,765 11.4 -16.2°
Reaches altitude 10° 04:56:38 10° 297° (WNW) 5,162 10.8 -14.9°
Maximum altitude 05:09:17 56° 222° (SW) 1,704 8.5 -11.9°
Drops below altitude 10° 05:15:54 10° 144° (SE) 2,791 10.2 -10.3°
Sets 05:18:00 0° 138° (SE) 3,511 10.8 -9.7°
